Dewpoint
47 48 49 50 50 51 52 52 53 55 56 55 52 49 46 45 44 40 40 41 33 30 32 34 33 28 27 25 20 21 17 20 19 16 16 16 17 19 17 18 17 18 17 15 17 15 11 11 10 5 15 19 20 18
47 48 49 50 50 51 51 52 52 54 55 54 50 47 45 45 43 42 38 42 40 33 32 36 34 30 30 29 25 26 20 21 21 20 21 21 19 18 14 6 12 12 13 14 18 16 13 13 13 14 18 19 20 21
47 47 48 49 50 50 51 51 52 52 54 51 48 46 45 44 41 40 38 38 36 32 31 31 28 23 28 30 31 25 27 25 23 25 22 20 14 17 10 12 12 12 15 12 10 6 12 17 17 19 21 20 20 21
46 47 47 48 49 49 50 51 51 53 51 48 46 45 44 43 41 39 37 39 35 31 23 16 24 19 22 22 29 28 25 27 27 25 22 20 16 19 16 13 13 14 16 14 13 13 18 17 18 19 18 19 20 17
45 46 47 48 48 48 48 51 51 50 48 46 45 44 44 42 40 39 38 37 34 22 19 21 22 23 23 21 26 28 26 25 24 23 22 19 22 19 18 17 17 15 17 16 14 18 19 19 18 18 18 17 16 17
48 47 46 47 47 49 50 51 51 48 46 46 44 45 43 40 39 36 31 36 35 30 11 2 22 20 21 20 23 26 26 25 24 22 21 21 21 17 12 11 18 20 20 20 18 19 18 18 17 18 17 17 17 17
49 48 48 50 50 50 51 50 48 47 45 45 43 43 41 39 35 27 22 26 34 30 13 8 15 20 21 23 23 21 22 22 22 21 19 18 19 21 17 14 19 19 19 18 18 17 15 16 16 17 17 15 15 16
50 50 50 50 50 50 49 47 46 45 44 43 42 42 39 35 33 31 35 34 31 25 20 8 12 17 20 18 21 24 20 22 21 20 24 21 21 21 16 19 18 19 18 17 17 18 17 17 16 15 14 15 15 15
50 51 50 50 50 47 46 45 44 43 41 41 38 34 30 30 28 33 33 30 29 22 13 13 7 11 21 21 23 25 25 21 25 22 22 22 20 16 18 18 18 19 18 17 18 17 15 15 14 14 14 15 15 15
50 50 48 46 46 45 44 43 41 40 37 32 29 26 26 32 35 28 19 19 19 19 18 15 20 15 20 19 19 20 20 20 17 19 24 20 19 21 20 19 18 18 18 18 15 14 15 13 13 14 15 15 15 17
47 46 45 45 44 43 42 40 39 34 28 27 27 27 32 30 22 18 13 10 14 11 18 19 19 19 23 16 17 21 17 16 14 16 19 17 15 17 19 17 17 17 17 17 17 17 16 16 15 15 15 16 17 17
45 45 44 42 42 41 40 36 30 30 26 26 29 27 22 18 14 4 7 14 14 12 19 19 21 20 21 23 18 18 15 14 10 19 18 13 16 18 17 17 17 16 16 16 16 16 16 16 16 16 16 17 17 19
42 41 41 41 40 39 34 30 31 29 23 20 15 14 11 13 0 -6 -8 7 8 16 21 19 16 17 19 19 17 16 14 12 16 15 13 13 18 17 16 16 16 16 16 15 15 15 16 15 16 16 16 17 18 18
40 40 39 38 35 32 33 32 27 22 10 4 5 9 5 8 5 7 7 12 20 21 17 17 16 17 17 15 15 13 14 15 12 10 11 14 16 16 15 15 15 14 14 14 14 15 15 15 15 15 16 18 18 17
40 39 37 35 32 30 28 27 24 21 14 3 5 -0 10 15 18 18 20 19 18 17 17 15 14 14 13 13 12 13 12 11 11 10 13 16 16 14 14 13 13 14 14 13 14 14 15 15 15 15 16 18 18 17
37 36 32 31 29 27 24 23 22 21 18 14 14 15 18 17 17 19 18 18 18 16 14 12 11 9 10 10 10 10 9 9 10 12 15 16 15 14 13 13 14 14 12 12 13 14 15 14 14 14 16 17 17 18
34 34 33 29 27 25 23 16 17 15 15 16 16 18 17 18 18 18 19 19 16 14 11 10 7 7 8 9 10 10 10 10 12 12 13 14 13 15 14 14 14 13 12 12 13 13 13 13 13 14 13 15 17 18
33 34 28 25 19 21 18 17 15 14 15 16 16 18 18 19 19 20 19 16 14 13 11 9 10 10 9 8 9 10 11 12 12 13 12 12 14 14 15 14 14 13 13 12 13 14 13 13 12 12 14 16 16 16
32 29 28 26 20 16 14 15 14 12 15 17 18 19 20 20 19 18 17 15 14 14 13 11 9 8 9 8 11 10 9 10 11 11 12 13 14 14 14 15 14 13 12 12 13 15 13 13 12 12 14 16 14 15
28 26 24 22 19 13 12 13 14 13 13 16 17 17 17 17 17 16 16 16 13 11 10 9 9 9 10 10 9 11 12 12 11 10 11 14 15 15 14 14 14 13 12 12 12 15 13 13 13 12 14 15 13 14
23 24 21 15 11 10 8 8 12 14 14 12 11 12 13 14 14 13 12 12 11 10 11 8 9 10 8 9 9 11 12 12 12 12 13 14 15 15 14 15 14 12 12 11 11 11 12 12 15 11 12 12 12 14
21 20 13 13 9 9 8 7 10 10 10 8 8 7 10 10 9 8 7 10 8 8 8 9 10 10 12 11 12 12 13 14 16 15 16 16 13 13 13 13 13 12 12 12 12 12 12 13 16 11 11 10 10 11
17 13 7 7 6 6 6 4 8 5 8 8 3 8 7 6 5 5 8 4 7 10 10 10 11 11 12 13 12 12 14 14 13 13 13 14 14 14 13 11 12 11 11 11 12 12 12 13 13 12 11 8 8 8
11 6 5 5 5 6 3 5 2 5 4 5 5 6 6 5 1 5 7 6 8 11 10 10 11 12 12 12 11 11 12 14 12 11 11 12 13 12 12 11 11 11 11 11 11 12 12 11 11 9 10 9 7 6
1 3 3 3 1 3 3 4 4 3 3 1 4 6 4 -3 5 5 6 5 6 8 7 9 10 11 11 11 12 12 13 13 11 9 10 11 12 12 12 12 11 11 12 10 10 11 11 11 9 8 8 11 7 5
-1 5 2 2 3 -0 1 -1 2 3 3 3 3 -2 -4 3 4 3 4 4 6 6 6 7 8 9 10 11 11 11 11 13 12 9 9 10 10 9 8 8 8 9 12 10 11 11 11 10 8 7 6 6 9 5
-1 5 8 8 5 4 3 3 2 2 2 2 4 4 4 2 2 3 3 4 6 6 7 8 8 8 9 11 12 12 12 12 12 10 11 10 10 10 9 8 7 9 12 8 11 13 11 8 7 7 6 5 4 4
5 6 2 4 4 1 2 2 2 2 4 1 3 4 3 2 3 3 4 5 5 5 5 6 8 9 9 10 11 12 11 11 10 10 10 10 10 9 8 7 8 10 8 7 14 13 10 7 6 6 5 4 4 3
6 4 4 4 3 3 3 4 4 3 4 3 5 5 4 1 3 5 6 6 3 5 6 6 7 7 9 10 10 10 10 10 9 8 7 6 6 8 8 6 4 3 3 4 12 13 11 9 6 4 3 2 1 0
5 3 3 2 4 4 3 2 4 4 5 3 4 4 4 4 4 2 4 3 4 5 4 3 4 6 7 8 8 9 10 10 11 10 6 5 7 9 7 5 3 2 2 2 2 4 7 1 2 -0 -0 0 2 -0
3 1 2 2 3 0 0 1 3 5 1 3 -1 4 4 2 3 4 4 3 2 1 3 4 5 5 7 8 8 9 9 11 12 11 10 10 10 9 8 5 3 2 1 1 1 0 0 0 -0 -1 -1 -1 -1 -1
1 1 2 3 2 1 0 1 -0 2 0 3 3 -1 2 3 3 3 3 2 3 4 5 4 5 7 8 8 9 9 13 11 12 13 13 12 11 11 9 6 4 4 3 2 1 0 -0 0 -0 -0 -1 -1 -2 -2
-3 -3 -3 -0 1 2 1 1 -0 1 0 2 2 0 0 2 2 2 3 3 3 3 3 4 4 5 7 8 8 9 11 10 12 17 20 17 15 13 9 8 6 6 6 5 3 2 2 1 1 -0 -1 -2 -2 -3
Wind_Speed
23 24 24 23 23 23 21 21 21 23 25 27 28 32 30 29 25 12 8 4 8 5 2 4 2 1 0 2 4 3 2 1 2 6 5 5 5 3 2 2 2 5 5 7 3 5 9 13 6 5 4 10 13 15
26 25 26 25 24 23 24 22 20 21 20 18 31 33 31 30 24 14 6 8 12 4 1 2 2 1 0 3 6 3 1 1 4 3 2 0 3 2 2 3 1 4 4 2 7 5 1 6 3 5 5 10 12 21
27 28 28 26 27 25 25 22 19 20 17 28 33 32 30 26 25 9 10 12 8 5 2 1 6 2 4 1 1 4 2 2 1 1 4 2 4 4 5 6 1 1 1 3 7 4 19 22 1 8 8 18 21 12
31 31 30 28 27 24 23 22 19 16 27 36 35 32 30 27 22 14 8 8 7 6 4 5 2 3 2 0 2 3 7 6 5 1 2 2 4 3 4 2 3 1 4 2 9 11 18 2 9 17 24 20 13 20
33 32 29 28 26 24 22 22 19 31 37 38 34 33 30 28 23 14 10 4 4 3 6 3 4 3 2 3 4 6 10 7 3 1 1 4 2 3 1 0 4 1 1 1 5 9 9 21 21 24 19 21 25 24
31 28 27 26 25 23 23 21 32 38 38 36 32 32 33 30 25 9 3 3 6 3 4 3 4 3 5 5 7 6 7 5 3 4 3 2 2 3 3 3 4 2 2 3 7 16 18 25 25 13 26 29 28 26
23 22 23 24 24 24 21 33 38 38 37 34 34 32 33 25 10 6 4 4 10 2 2 2 2 3 3 3 3 2 3 2 3 3 3 3 3 4 2 3 2 6 7 11 9 11 13 5 20 27 24 26 27 26
22 23 24 24 24 22 35 41 41 40 39 37 35 33 30 24 11 9 9 8 5 7 4 4 1 2 1 2 2 1 3 1 1 4 3 3 2 1 4 1 6 9 13 8 11 13 16 23 23 24 22 24 27 27
17 17 18 20 31 43 44 46 44 46 45 44 41 33 12 7 3 6 8 12 10 5 4 2 8 5 2 1 2 2 1 3 1 5 3 6 4 5 2 4 8 9 9 14 17 16 14 19 22 23 23 24 25 27
16 22 35 43 46 47 47 49 48 47 45 38 11 8 5 2 14 4 5 3 6 7 4 3 2 4 1 1 2 3 1 2 3 3 5 5 3 6 4 5 5 8 9 11 15 20 22 24 26 27 26 24 23 25
34 38 41 43 46 48 49 49 48 43 22 7 5 4 4 3 3 4 4 3 3 1 0 2 2 5 2 3 3 1 3 0 2 2 4 4 3 1 6 7 7 8 9 11 10 13 14 17 21 24 27 26 25 26
36 40 43 47 48 48 47 44 30 8 5 13 18 10 4 4 4 4 2 1 2 3 2 3 3 3 2 2 3 1 2 2 1 1 1 2 2 3 6 8 9 10 11 12 11 14 16 18 19 20 21 23 24 25
45 47 47 45 45 43 37 27 31 37 20 8 7 5 2 2 4 5 7 3 2 4 5 4 3 2 2 4 4 2 2 3 0 1 1 2 1 5 7 8 10 10 10 11 14 14 15 18 18 18 21 20 22 22
44 44 44 41 37 35 33 31 16 8 7 6 4 5 2 3 2 3 5 5 2 4 7 6 4 2 1 2 1 2 1 0 1 2 3 2 4 6 6 7 8 12 13 14 15 16 16 18 19 19 19 20 21 22
41 40 37 35 34 30 21 14 12 9 5 5 3 3 2 3 4 4 5 5 4 3 3 5 5 2 3 3 2 2 1 2 3 2 3 2 5 6 8 8 10 11 13 14 14 14 16 17 18 19 20 19 20 21
37 35 30 30 25 19 16 11 7 4 5 4 5 5 4 9 5 5 8 6 1 3 3 5 4 3 2 2 2 3 3 3 2 1 3 5 8 7 7 8 9 9 11 12 13 13 14 16 18 18 18 19 20 20
19 9 27 24 22 22 20 7 5 7 5 4 4 6 6 8 7 3 2 2 0 2 2 3 2 2 3 2 1 3 2 3 2 5 5 6 10 8 6 7 9 10 10 11 12 13 14 15 14 14 20 22 20 18
28 24 23 16 11 10 5 8 5 6 7 6 6 4 5 4 7 4 3 2 2 3 3 2 5 3 3 3 1 2 1 3 5 6 9 8 8 4 4 6 8 8 8 10 10 11 13 15 15 14 15 18 16 18
20 17 16 14 10 7 5 6 6 6 5 3 4 4 5 5 7 7 7 7 6 5 9 3 2 2 1 3 1 1 3 3 5 8 11 8 3 2 3 5 6 7 8 9 11 10 11 11 11 12 13 14 13 15
26 22 21 21 10 5 5 5 4 6 4 3 5 5 4 4 3 5 8 7 3 2 3 2 1 1 2 1 3 3 4 4 5 8 9 2 1 1 2 4 5 7 7 9 9 10 10 10 12 12 12 13 13 15
13 6 14 8 6 11 7 4 6 4 4 5 3 4 3 3 3 4 4 9 4 3 2 1 1 1 3 5 5 4 5 4 6 6 8 5 1 1 2 3 4 5 6 8 9 10 11 10 10 11 11 11 12 11
4 8 5 7 6 5 7 6 5 2 4 3 3 4 3 2 3 4 6 4 2 1 1 1 1 1 2 2 2 2 5 6 3 3 4 3 1 1 3 4 4 5 5 7 7 8 9 9 9 10 10 11 11 11
7 5 6 7 6 7 2 4 3 5 3 2 1 3 2 2 2 5 2 0 1 1 1 1 3 3 3 2 1 2 4 2 1 2 4 2 3 3 3 5 5 4 5 6 7 7 8 10 9 9 9 10 10 11
10 7 6 5 6 4 2 4 3 3 3 3 3 2 2 2 8 3 1 1 1 1 3 5 4 1 1 0 1 2 4 1 1 3 5 3 1 2 2 4 5 4 4 6 6 7 8 8 9 9 9 10 11 10
5 7 4 6 4 3 4 3 3 3 3 2 2 1 1 3 0 1 1 2 2 1 3 5 5 5 1 0 0 0 3 3 0 2 5 5 3 1 1 1 1 5 6 7 8 9 8 8 7 7 8 7 10 10
6 6 4 2 2 3 2 3 2 3 3 2 1 0 1 1 0 1 2 2 2 2 1 3 3 3 3 3 3 2 4 3 1 3 4 5 5 3 3 3 3 3 7 6 7 8 9 8 7 9 9 11 13 12
4 3 3 3 4 6 6 4 3 2 2 2 3 2 2 0 2 2 1 2 1 1 1 2 2 2 2 4 1 2 4 4 4 6 5 6 6 5 4 3 4 5 8 8 7 7 7 7 6 7 7 7 8 9
4 2 6 3 4 3 5 3 2 2 2 3 5 2 2 3 1 1 2 1 2 2 4 3 2 3 3 2 2 2 1 2 3 2 1 1 1 6 6 4 5 8 7 7 7 2 4 5 4 5 5 6 6 6
4 3 3 5 3 4 2 2 3 1 2 6 2 3 2 2 1 1 0 1 0 2 2 1 1 4 0 1 2 1 1 3 3 2 4 2 3 4 8 6 6 7 7 7 7 4 3 3 5 5 5 5 4 5
2 2 4 3 2 2 1 0 2 0 1 2 1 1 0 0 0 1 2 1 2 2 2 2 2 2 1 2 2 5 5 2 3 3 3 1 1 2 5 6 7 8 8 8 9 8 7 9 8 8 9 10 10 11
1 2 4 4 3 1 1 2 2 2 3 1 2 1 1 1 1 1 2 3 1 1 2 1 1 1 1 2 2 3 4 4 4 4 4 4 2 1 2 3 4 6 8 9 9 10 9 10 10 11 11 12 12 12
3 4 4 3 2 2 3 1 1 1 3 1 1 2 2 1 1 1 3 3 2 2 2 1 1 2 2 1 1 0 3 2 3 2 2 2 2 2 2 2 3 5 7 8 8 7 7 9 10 10 11 12 12 12
3 3 4 4 3 2 2 1 3 1 1 1 1 1 1 1 2 1 2 1 1 2 3 3 4 5 4 2 1 1 1 2 6 10 4 10 7 6 4 2 1 2 4 5 6 5 7 7 7 8 10 11 12 13
Wind_Direction
269 266 263 261 259 256 252 250 248 249 239 225 190 175 174 169 167 147 131 127 137 172 200 181 155 223 34 200 194 150 116 198 164 208 213 192 188 221 258 238 191 203 189 214 207 240 267 8 28 9 318 328 321 323
270 265 262 256 252 249 250 247 246 248 238 215 170 166 169 165 151 142 132 104 95 125 166 279 231 183 254 285 171 169 17 158 209 178 246 216 197 170 167 245 220 240 214 256 219 255 75 3 270 230 329 314 319 314
270 266 263 257 249 245 244 245 240 244 223 169 161 162 161 157 153 132 113 118 93 136 94 323 237 158 101 285 339 174 208 192 192 22 153 177 239 162 188 231 254 228 59 262 335 340 330 325 292 6 342 323 312 307
268 263 257 254 248 244 243 237 230 214 165 152 158 156 156 155 144 124 126 135 108 112 147 192 232 108 48 246 147 131 143 118 115 80 134 179 227 206 209 215 202 219 325 320 273 306 333 105 340 334 320 315 314 312
272 264 251 243 241 236 234 219 207 162 155 152 155 152 155 137 122 94 86 108 121 126 175 232 134 150 116 60 127 129 133 117 108 132 163 213 233 182 192 118 239 45 113 279 278 309 281 287 307 312 313 321 315 311
270 249 241 238 231 223 210 205 166 153 152 148 148 147 135 126 125 103 89 235 207 189 124 206 347 61 59 87 126 132 126 105 118 167 197 233 248 185 176 223 139 67 346 278 275 302 297 283 289 299 320 313 311 307
258 240 224 214 214 206 195 157 147 146 140 138 133 135 132 129 80 86 169 166 154 158 123 102 79 24 36 98 68 82 58 107 125 159 205 203 215 170 185 235 160 337 328 308 292 336 316 309 306 310 308 308 308 303
235 225 215 203 191 182 152 140 136 132 130 129 120 118 111 111 89 57 15 81 97 95 61 115 100 146 38 120 121 62 128 94 187 181 168 183 141 126 240 166 344 350 339 321 327 314 283 293 303 311 312 313 312 309
223 203 185 180 152 138 132 129 129 123 118 117 114 113 88 45 86 124 114 75 66 88 125 115 163 185 33 90 123 110 165 190 253 213 201 156 176 226 128 351 348 350 337 302 309 309 310 316 316 319 320 318 314 310
197 165 138 135 134 132 129 126 123 121 122 124 85 70 80 57 120 113 26 45 36 2 51 133 125 155 109 161 89 137 26 177 217 224 138 210 171 117 64 22 357 334 323 321 329 332 332 329 325 322 321 317 313 312
124 128 132 130 126 123 124 124 124 126 111 67 81 74 94 119 81 48 73 62 10 198 94 143 175 129 356 137 145 7 148 77 216 219 204 211 172 117 10 359 348 341 336 328 304 297 311 310 313 316 319 319 319 319
118 118 120 121 121 122 121 123 118 73 96 124 108 92 73 45 64 106 136 331 204 212 175 143 121 107 120 82 121 31 146 150 202 317 245 223 133 37 2 347 340 341 339 328 326 328 326 324 320 319 317 321 324 321
104 109 110 108 109 112 117 114 114 117 103 71 75 93 129 351 120 172 182 207 206 184 175 156 116 80 87 62 87 146 153 201 216 161 221 140 67 0 348 340 334 335 333 333 341 340 333 330 330 332 325 330 329 334
108 108 109 112 114 115 117 123 111 78 74 72 80 91 74 171 198 167 164 143 109 126 126 114 98 115 38 106 126 134 155 198 181 209 205 137 334 329 337 338 337 337 343 343 344 337 336 336 334 333 335 338 338 346
113 113 114 114 116 115 114 104 77 54 70 86 81 104 106 120 76 96 97 95 64 115 133 108 77 76 45 92 41 113 113 236 213 202 151 357 321 323 330 338 337 343 346 344 339 337 338 336 340 332 338 345 348 353
112 110 117 115 110 98 86 78 45 66 61 73 64 92 100 99 94 83 89 96 60 114 88 56 95 87 81 110 146 199 153 228 175 230 304 321 328 320 316 327 336 341 346 339 340 343 338 346 340 329 339 354 352 356
103 116 116 107 95 74 52 68 51 53 71 58 55 50 82 88 108 94 81 90 22 75 93 102 115 159 118 103 225 189 215 159 267 308 316 308 317 307 312 330 346 348 347 348 347 353 351 345 336 349 1 350 349 353
111 122 122 110 95 64 46 38 76 68 70 46 86 45 71 64 106 82 92 55 70 100 130 123 129 150 180 184 214 193 219 292 293 294 313 312 317 296 330 343 344 347 347 355 357 352 1 359 0 354 348 349 350 359
111 103 84 70 81 83 65 39 35 86 67 43 64 46 63 73 61 74 80 70 78 100 115 88 104 160 175 207 153 206 290 300 301 312 304 306 257 325 358 355 348 352 0 5 5 3 2 349 354 353 345 354 357 2
93 78 72 59 58 75 73 43 25 78 83 46 43 45 65 68 69 66 54 36 54 62 53 50 94 152 128 150 216 272 285 289 297 315 334 247 271 39 28 7 353 353 6 13 12 13 9 2 8 1 1 6 4 7
78 34 44 54 54 61 79 36 60 63 81 79 7 42 59 31 56 45 32 353 47 50 60 182 195 269 259 264 251 267 302 297 282 268 286 294 189 81 27 6 360 12 20 17 8 1 8 356 350 357 358 359 0 357
81 61 71 36 75 62 76 20 86 69 78 97 66 26 67 73 41 28 327 48 64 21 209 176 252 292 347 359 345 305 307 307 303 333 5 31 51 34 22 4 4 9 21 16 1 351 345 341 356 11 4 2 7 5
82 59 56 38 81 49 63 0 74 24 97 92 68 85 50 54 356 328 59 71 269 289 276 278 301 270 278 296 320 0 352 6 42 24 25 47 72 63 56 30 15 11 5 2 349 346 347 356 358 12 7 11 16 21
48 53 47 52 47 93 35 43 47 76 78 62 67 79 49 8 344 59 238 261 268 48 20 355 342 276 179 157 350 3 355 338 104 50 14 358 43 41 64 48 30 21 1 329 341 352 356 359 8 10 11 20 24 26
84 13 39 58 37 92 74 61 39 68 87 59 112 125 108 354 90 221 240 231 213 204 7 8 31 32 59 138 217 253 12 14 77 58 17 9 343 10 27 339 8 26 3 360 3 359 360 5 16 23 17 29 36 28
78 359 48 88 51 82 128 105 119 134 128 124 124 294 22 92 167 243 229 205 202 189 41 29 11 5 22 15 332 329 333 347 70 81 32 25 27 33 5 354 349 360 9 351 340 349 358 8 21 27 29 26 27 28
99 82 55 35 95 112 93 75 97 123 114 116 155 117 93 272 250 243 238 219 191 208 255 291 287 284 316 342 14 19 19 43 84 104 94 61 46 33 22 358 347 323 332 334 336 346 357 7 22 29 32 32 28 23
98 125 136 120 82 39 121 112 121 120 141 159 135 183 203 210 221 190 189 208 231 313 313 292 281 287 290 306 326 332 56 95 74 55 36 64 83 39 23 5 335 337 342 319 311 54 49 38 40 41 38 34 23 14
77 59 103 81 71 60 71 101 127 145 129 163 180 206 232 214 194 154 178 286 309 336 332 312 310 356 357 18 36 28 213 200 188 304 315 313 350 7 13 18 12 6 3 4 14 73 107 95 78 66 48 29 6 8
82 17 98 84 94 113 60 76 104 202 101 108 121 116 177 160 345 261 325 320 282 276 275 254 299 359 31 26 51 63 61 123 223 249 281 244 82 347 8 20 23 19 24 40 43 39 48 45 47 43 38 35 28 24
50 84 85 66 92 38 308 323 321 65 42 61 25 163 188 300 292 19 25 359 348 347 331 317 267 253 221 174 138 109 94 54 66 72 95 109 117 80 38 36 33 36 47 51 48 47 45 42 38 34 31 25 17 14
40 68 101 102 108 341 11 63 69 67 4 35 329 2 353 332 265 19 5 9 17 28 13 349 359 24 285 237 190 298 55 85 36 2 226 185 195 189 169 104 71 55 51 49 45 43 41 37 31 27 20 11 3 359
73 72 78 101 111 154 28 90 43 353 11 339 317 332 284 262 257 327 344 345 347 320 319 312 301 317 325 273 260 4 53 336 322 340 141 189 184 170 169 168 127 66 46 37 29 21 15 12 7 6 4 359 351 347